Theta_e
296 295 294 294 293 293 293 292 292 291 291 290 290 289 287 287 286 287 287 285 284 284 285 285 285 286 286 286 286 287 288 289 290 289 288 289 289 290 290 290 292 293 295
294 294 293 293 293 292 292 291 291 291 290 290 289 287 286 286 285 286 286 284 283 283 283 284 285 285 285 286 286 286 287 287 287 287 287 286 287 287 289 290 292 293 295
293 293 292 292 292 291 291 290 290 290 289 289 288 286 286 285 285 286 283 283 282 282 283 284 285 284 285 284 284 285 285 284 284 284 284 285 285 287 288 290 291 292 293
292 292 292 291 291 290 290 290 289 289 289 288 288 287 286 285 286 283 282 281 281 281 282 284 285 284 284 284 284 282 282 281 281 282 283 284 285 286 286 287 289 290 291
291 291 291 290 290 290 289 289 288 288 288 288 287 287 285 285 283 282 281 280 280 281 283 284 284 283 284 283 282 281 280 280 281 282 283 283 284 285 285 286 287 288 288
291 290 290 290 289 289 288 288 288 287 287 287 287 286 285 285 282 282 281 279 280 281 282 282 282 282 283 282 280 279 279 279 280 281 281 281 283 282 283 285 286 286 288
290 289 289 289 288 287 287 287 287 287 286 286 285 285 284 284 282 281 280 279 280 280 280 280 281 281 282 280 279 279 279 280 280 280 280 280 280 281 283 285 286 286 286
289 289 288 288 287 286 287 286 286 286 285 285 285 284 284 283 281 280 280 279 279 279 279 279 279 280 280 280 279 279 279 279 279 280 279 280 280 282 284 285 285 285 286
288 288 287 286 286 285 285 285 285 285 285 284 284 283 283 282 281 280 279 278 278 278 277 278 278 279 278 278 279 279 279 279 279 279 279 280 280 281 283 284 285 285 286
287 286 286 285 285 284 284 284 284 284 283 283 283 282 281 281 280 279 278 277 277 277 277 277 278 278 278 279 279 279 280 279 279 279 278 279 280 280 281 282 284 284 285
286 285 284 284 283 283 283 284 283 283 283 282 281 281 280 279 278 278 277 276 276 276 276 276 276 276 278 279 278 278 278 278 278 278 278 278 279 279 280 281 283 284 285
285 284 283 283 282 283 282 282 282 281 281 280 279 279 278 277 277 277 275 275 276 275 275 276 275 277 278 277 277 277 277 277 277 277 277 278 278 278 279 280 282 283 285
283 283 282 282 281 281 281 281 281 280 279 278 278 277 276 276 275 275 274 275 275 274 275 275 276 276 275 275 276 276 276 276 276 276 276 277 278 278 279 280 282 284 285
280 281 281 280 281 280 281 280 280 279 278 277 276 276 275 275 274 274 274 275 274 274 275 274 275 275 274 274 274 275 275 275 275 275 276 277 277 278 278 279 281 283 284
280 281 280 281 280 280 280 280 279 278 277 276 276 275 275 275 274 274 275 275 274 275 274 274 274 274 273 273 273 273 273 274 274 274 275 276 276 277 277 278 280 282 283
281 281 279 280 280 280 280 279 279 278 277 277 276 275 275 274 274 274 275 274 274 274 273 273 273 273 273 273 273 272 272 273 273 274 274 275 275 276 276 278 279 281 282
280 279 280 280 280 279 279 278 278 278 277 277 277 276 275 274 273 274 274 274 273 273 272 272 272 272 272 272 272 272 272 272 272 273 273 273 274 274 275 277 278 280 281
278 277 279 279 279 278 278 278 277 277 277 277 276 276 274 273 272 274 274 273 272 272 272 271 271 271 271 271 271 271 271 271 271 272 272 272 272 273 274 276 277 279 280
278 278 278 278 278 277 277 277 277 277 276 276 276 275 274 272 272 273 273 272 272 271 271 271 271 271 270 271 270 270 270 271 271 271 270 271 271 272 273 275 276 278 279
276 276 276 278 278 278 278 277 277 276 276 276 275 275 273 272 272 272 272 272 271 271 270 270 270 270 270 270 269 269 270 270 270 269 269 270 270 271 272 274 276 277 278
279 278 276 277 278 277 277 276 276 276 275 275 275 274 273 272 273 272 271 271 271 270 269 269 269 269 269 269 269 269 270 269 269 268 268 269 269 270 271 274 275 276 277
278 278 277 277 277 277 276 275 276 275 275 275 274 273 273 272 272 271 271 271 270 269 269 268 268 268 268 268 268 268 269 268 268 268 268 268 268 269 270 273 275 275 276
277 277 277 277 276 276 275 276 275 275 274 274 273 273 272 272 271 271 270 270 269 268 268 267 266 267 267 267 267 267 268 267 267 267 267 267 268 269 270 273 274 275 275
277 276 276 276 276 275 275 275 274 275 274 274 273 273 272 271 271 270 269 269 268 267 267 266 265 267 266 266 266 267 266 266 266 267 266 266 267 268 271 272 273 274 274
276 276 276 276 276 275 275 275 275 274 274 273 273 272 271 271 270 269 268 268 267 267 265 265 265 265 265 266 266 266 265 265 266 266 266 267 267 270 270 271 272 273 274
276 275 275 275 275 275 275 274 274 273 273 273 272 272 271 270 269 268 267 267 265 264 263 263 263 263 264 265 265 265 264 264 265 266 266 267 268 269 269 270 271 273 275
Wind_Speed
6 4 2 3 3 4 4 6 8 9 11 12 13 14 16 16 18 17 16 17 22 24 24 24 26 25 24 25 26 25 25 25 19 32 36 37 41 40 45 44 41 42 41
6 4 3 3 3 4 5 6 8 9 10 11 12 14 15 16 18 17 15 20 24 25 27 26 25 24 25 23 25 26 27 27 30 25 36 39 39 42 41 45 40 39 43
6 5 4 2 2 3 5 7 8 9 10 10 11 10 12 18 17 11 17 21 25 27 28 27 24 24 24 25 27 25 25 28 31 34 35 36 38 36 39 38 39 41 43
5 4 4 1 1 2 4 6 8 8 10 11 11 9 10 16 10 12 17 22 27 27 29 29 21 23 25 25 24 26 27 31 33 33 33 33 32 33 34 34 36 33 42
6 5 4 2 1 2 4 6 7 8 9 10 12 8 14 17 7 14 19 22 29 30 29 25 24 27 24 22 25 27 32 31 31 31 30 29 29 29 28 32 33 37 44
7 6 4 2 1 2 4 6 7 9 9 10 10 10 15 13 10 14 20 27 27 28 27 27 28 28 22 21 22 30 31 33 31 28 29 26 25 33 33 30 31 26 16
7 5 3 1 1 3 4 6 8 8 10 11 12 13 16 12 13 18 22 25 27 27 28 30 30 28 24 24 31 33 32 28 29 31 31 33 35 36 37 34 29 29 30
7 5 4 1 2 3 4 6 8 9 10 11 12 13 15 14 17 20 24 24 26 26 28 31 31 29 24 32 34 34 32 30 28 29 33 36 37 39 36 32 33 34 34
6 4 3 2 2 3 6 7 7 10 11 11 12 14 15 15 20 22 25 25 26 27 31 29 30 27 31 33 34 32 32 29 31 32 33 32 33 33 32 34 24 22 14
6 4 3 2 2 4 5 6 8 10 11 12 13 15 16 18 20 22 25 27 26 29 29 30 29 30 32 35 33 30 27 30 35 35 34 34 32 33 31 30 28 20 15
6 4 3 3 3 4 5 7 9 9 10 12 13 15 16 19 21 22 25 28 28 29 29 29 30 34 36 30 31 26 31 35 30 30 31 31 31 31 31 33 32 27 22
7 5 5 4 3 4 5 7 8 10 11 12 14 14 17 20 21 22 26 27 28 28 29 28 33 34 30 30 29 31 31 30 29 29 28 29 30 33 36 38 37 35 30
8 6 5 4 3 5 6 7 7 8 9 12 13 13 17 19 20 22 27 27 27 29 25 32 30 29 29 28 29 29 29 27 28 28 28 28 30 36 37 35 35 33 29
9 7 5 4 4 4 4 4 5 6 6 10 11 13 16 17 19 25 26 25 27 27 27 29 26 25 27 26 27 28 28 28 28 28 29 31 30 32 34 35 33 30 24
9 7 4 4 3 4 4 3 3 4 7 4 7 10 14 15 20 26 26 26 28 26 29 24 24 25 26 27 27 28 29 30 29 29 30 31 30 27 26 29 26 24 18
9 6 5 3 2 3 4 5 4 6 8 6 5 8 13 14 23 23 24 26 24 25 23 22 23 24 25 26 28 28 29 30 31 30 29 30 31 31 31 30 27 25 23
8 5 5 3 2 4 5 5 8 8 8 8 7 10 9 16 23 22 23 24 21 23 20 21 22 24 25 25 27 28 29 31 32 30 29 30 32 34 33 31 31 27 24
7 5 3 2 2 2 3 5 7 9 10 11 11 12 10 17 23 21 21 21 20 20 20 21 22 24 25 25 27 29 29 30 32 31 31 30 30 32 32 30 29 29 27
5 5 3 2 2 2 4 5 7 9 10 12 13 12 12 16 22 18 19 18 19 19 21 22 23 23 25 25 26 28 29 29 31 31 33 32 31 32 31 31 31 30 27
7 2 3 2 2 2 4 6 8 9 11 12 13 13 13 19 20 18 19 19 19 19 21 22 24 24 25 24 27 29 29 28 30 32 33 33 31 31 29 30 28 27 26
7 7 2 3 3 3 5 6 9 10 11 12 13 14 15 17 16 16 18 18 18 19 20 22 25 24 25 24 27 29 27 28 30 32 33 33 34 31 31 29 28 28 26
5 4 3 2 2 4 4 8 10 10 12 13 14 14 16 16 16 17 18 18 18 19 20 21 24 24 24 25 27 29 25 27 31 33 33 34 34 33 33 28 27 26 25
6 4 4 4 2 4 6 8 8 12 12 13 14 14 15 16 16 17 19 19 18 21 20 21 26 25 24 26 28 29 24 29 31 33 33 34 32 31 31 30 28 28 27
7 5 5 4 4 4 7 8 11 12 13 13 14 14 14 16 16 16 19 19 20 23 18 25 26 23 26 27 28 23 29 31 32 31 34 34 32 32 28 28 26 28 27
6 5 5 5 5 7 8 10 11 13 14 14 15 15 14 17 17 17 19 20 22 17 22 26 22 26 26 28 27 27 30 31 30 32 34 34 32 30 29 28 29 28 27
6 7 6 5 7 8 9 11 13 14 16 16 15 16 14 14 16 17 19 19 18 26 24 24 26 26 27 26 25 30 30 31 29 30 34 31 30 30 30 30 31 29 26
Wind_Direction
145 134 98 59 21 11 359 356 355 349 349 347 343 346 345 341 339 337 341 341 344 331 324 322 317 317 314 313 309 304 300 301 297 303 306 308 308 307 305 304 302 298 293
153 131 107 73 21 0 360 355 350 347 347 345 345 352 342 340 336 334 353 348 337 329 325 319 315 321 316 313 314 311 308 306 304 303 307 310 307 308 304 304 302 299 296
153 138 115 81 20 352 355 348 348 347 346 344 340 344 342 340 332 360 350 341 334 326 320 315 313 322 318 320 314 315 318 313 309 305 304 304 305 307 308 306 303 302 300
145 138 127 103 5 347 350 345 341 347 344 342 341 340 354 338 348 354 350 341 335 326 321 316 315 323 317 321 326 324 321 317 309 303 302 304 305 309 309 309 306 306 304
154 152 135 131 336 347 350 345 343 346 345 342 344 1 356 341 14 359 352 345 337 327 325 327 327 323 321 323 324 328 321 313 309 305 302 308 308 311 310 310 303 305 303
163 149 146 146 13 2 344 348 349 350 347 344 351 2 355 347 12 5 356 348 338 329 330 332 330 325 322 323 325 324 318 314 310 310 309 304 307 307 305 304 304 304 305
160 154 150 109 20 6 353 355 356 349 344 349 358 2 354 352 15 8 357 351 337 332 333 331 328 327 325 329 329 323 316 312 311 305 304 306 304 303 302 303 299 292 289
156 158 134 81 10 2 1 5 350 351 350 356 348 360 348 354 13 7 357 349 338 334 334 329 325 324 333 329 328 320 315 314 313 313 309 303 303 301 303 295 295 291 291
155 147 109 87 18 3 18 357 355 352 351 354 359 357 354 354 5 4 355 348 339 334 330 327 327 327 333 326 324 320 316 316 321 319 318 316 314 314 312 307 303 302 301
150 131 124 97 37 29 10 353 5 357 0 357 359 356 355 2 357 357 353 347 338 333 331 329 328 331 327 325 328 323 318 327 326 324 326 324 323 323 320 316 304 296 302
144 140 127 74 51 34 9 11 13 3 357 5 1 355 356 358 357 351 349 344 338 333 330 328 330 329 325 333 332 334 331 331 327 327 327 325 323 328 324 319 313 306 299
147 143 115 81 49 34 16 27 15 11 7 6 2 358 356 354 349 347 343 338 336 335 327 327 326 327 336 337 338 337 338 337 335 331 331 330 328 330 324 322 322 320 311
137 129 106 92 58 44 30 31 15 16 16 5 357 358 348 346 346 343 339 337 336 333 328 330 330 337 342 340 341 343 345 343 339 335 332 330 328 325 324 327 327 328 333
138 124 111 100 67 46 30 27 7 16 14 357 355 353 341 341 343 338 334 335 336 332 334 331 338 342 344 342 344 346 346 345 340 335 330 329 333 333 332 332 332 333 331
136 137 122 122 68 32 22 3 17 7 352 341 340 336 337 340 339 337 335 339 338 338 337 339 344 347 344 345 347 347 345 344 344 341 338 335 337 337 331 329 333 328 336
149 147 128 114 74 44 12 15 352 12 349 325 320 333 340 341 338 337 339 341 341 345 347 345 345 346 344 344 345 345 344 343 344 342 343 340 337 337 335 337 342 347 356
118 144 148 115 58 31 11 357 347 341 346 345 340 342 348 343 343 339 341 343 345 349 349 346 345 344 342 345 344 345 341 341 342 342 347 345 339 338 339 341 344 350 352
142 134 119 106 85 21 335 337 334 334 335 338 338 339 348 349 344 339 344 347 347 351 349 344 342 342 341 344 344 343 341 341 342 344 347 345 344 340 338 342 346 346 346
151 141 167 176 191 286 287 329 329 331 333 330 333 336 342 347 342 340 346 348 345 345 345 342 340 341 340 342 343 341 339 341 342 346 344 344 344 342 337 339 341 343 344
158 160 175 246 246 280 321 330 329 332 329 330 335 342 341 346 338 342 347 345 346 345 343 340 339 338 340 341 344 341 337 345 347 345 341 340 341 338 334 334 339 338 342
189 184 179 219 278 324 318 339 320 320 326 327 329 334 340 336 327 336 338 337 341 341 341 340 337 337 338 341 344 339 337 346 346 343 341 339 337 334 334 333 338 339 340
189 199 217 253 277 305 330 312 301 325 321 325 327 330 332 332 331 333 332 333 336 338 337 337 335 335 337 341 341 336 338 348 344 343 339 337 333 332 330 335 337 341 340
202 202 239 253 268 299 320 311 319 314 316 319 323 325 327 327 329 329 330 330 335 336 332 337 334 329 337 339 340 335 349 347 340 339 337 334 331 329 329 334 337 339 334
200 207 238 257 275 277 287 304 309 305 315 315 318 319 322 323 323 328 331 328 334 331 327 334 329 328 334 334 336 338 345 342 340 338 338 332 327 326 332 334 335 331 326
194 211 241 259 279 292 298 302 308 314 316 316 315 315 321 320 325 331 329 331 331 333 335 335 328 328 328 330 332 335 339 338 337 340 338 337 331 334 333 332 329 327 324
207 226 246 269 286 291 299 305 308 312 311 312 310 308 312 321 327 330 331 331 331 331 333 327 326 327 327 329 329 334 332 332 337 345 340 339 333 335 334 332 329 328 327